Regional Weather Roundup
Issued by NWS

Home | Current Version | Previous Version | Graphics & Text | Print | Product List | Glossary On
Versions: 1 2 3 4 5 6 7 8 9 10 11 12 13 14 15 16 17 18 19 20 21 22 23 24 25 26 27 28 29 30 31 32 33 34 35 36 37 38 39 40 41 42 43 44 45 46 47 48 49 50
000
ASUS45 KPSR 300300
RWRAZ

ARIZONA HOURLY REGIONAL WEATHER ROUNDUP
NATIONAL WEATHER SERVICE PHOENIX AZ
800 PM MST SAT AUG 29 2015

NOTE: FAIR INDICATES FEW OR NO CLOUDS BELOW 12,000 FEET WITH NO
SIGNIFICANT WEATHER AND/OR OBSTRUCTIONS TO VISIBILITY.

AZZ001>003-036-300400-
NORTHWEST ARIZONA

CITY           SKY/WX    TMP DP  RH WIND       PRES   REMARKS
KINGMAN        CLEAR     84  54  35 SE12      29.95R
$$

AZZ004>008-015-016-018-300400-
NORTH CENTRAL ARIZONA

CITY           SKY/WX    TMP DP  RH WIND       PRES   REMARKS
GRAND CANYON   PTCLDY    63  47  55 CALM      30.27R
WILLIAMS       PTCLDY    68  48  49 S6        30.33R
PRESCOTT       MOCLDY    73  60  63 S6        30.14R
FLAGSTAFF      NOT AVBL
PAYSON         CLOUDY    77  55  47 NE6       30.17R
PAGE           PTCLDY    86  41  20 CALM      29.99R
$$

AZZ009>014-017-300400-
NORTHEAST ARIZONA

CITY           SKY/WX    TMP DP  RH WIND       PRES   REMARKS
WINSLOW        NOT AVBL
SAINT JOHNS    MOCLDY    75  47  36 SE7       30.20R
WINDOW ROCK    LGT RAIN  76  42  29 S7G28     30.27R
SHOW LOW       CLEAR     68  46  45 S7        30.27R
$$

AZZ023-300400-
GREATER PHOENIX AREA

CITY           SKY/WX    TMP DP  RH WIND       PRES   REMARKS
PHOENIX        MOCLDY   103  56  21 SW5       29.76R HX 102
LUKE AFB       MOCLDY   100  59  25 NW13G21   29.77R HX 100
DEER VALLEY    PTCLDY   102  54  20 SW14      29.79R HX 100
SCOTTSDALE     MOCLDY   102  52  18 SE7       29.82R
MESA-FALCON    MOCLDY    99  54  22 SE20      29.84R
MESA-GATEWAY   RAIN      93  61  33 S29G36    29.86R BLWGDUST
CHANDLER       MOCLDY   102  57  22 E21G29    29.77S HX 101
$$

AZZ027-028-300400-
SOUTHWEST MARICOPA COUNTY AND PINAL COUNTY

CITY           SKY/WX    TMP DP  RH WIND       PRES   REMARKS
CASA GRANDE    MOCLDY    90  61  37 SE26G37   29.86R
GILA BEND      FAIR     100  59  25 S6        29.75R
$$

AZZ503-504-507>509-300400-
SOUTHEAST ARIZONA

CITY           SKY/WX    TMP DP  RH WIND       PRES   REMARKS
TUCSON         LGT RAIN  83  65  54 VRB3      29.99R
DAVIS-MONTHAN  CLOUDY    84  63  49 SE7       29.98R
RYAN FIELD     MOCLDY    79  70  73 NW8       29.97F
NOGALES        MOCLDY    78  59  51 NE7       30.06R
SIERRA VISTA   CLOUDY    76  57  52 S6        30.14R
SAFFORD        MOCLDY    79  60  52 VRB3      30.02R
$$

AZZ020-021-025-026-031-300400-
SOUTHWEST ARIZONA

CITY           SKY/WX    TMP DP  RH WIND       PRES   REMARKS
YUMA           NOT AVBL
$$

CAZ031-033-041-043-047-048-061-300400-
SOUTHERN CALIFORNIA

CITY           SKY/WX    TMP DP  RH WIND       PRES   REMARKS
DOWNTOWN L.A.  CLEAR     80  62  54 VRB3      29.82S
L.A. AIRPORT   PTCLDY    78  65  63 W16       29.82F
SAN DIEGO      PTCLDY    77  68  73 NW5       29.86R
BURBANK        CLEAR     87  63  44 E3        29.84R
ONTARIO        PTCLDY    87  56  34 SW10      29.85S
RIVERSIDE      CLEAR     87  60  40 W8        29.85S
PALM SPRINGS   CLEAR    103  48  15 NW17      29.71S
EL CENTRO NAS  CLEAR    104  48  15 SW15      29.68R HX 100
IMPERIAL       CLEAR    105  50  15 SW13      29.67R HX 102
BLYTHE         CLEAR    107  53  16 SW9       29.68R HX 105
$$

NVZ020-UTZ003-300400-
SOUTHERN NEVADA-UTAH

CITY           SKY/WX    TMP DP  RH WIND       PRES   REMARKS
LAS VEGAS      NOT AVBL
SALT LAKE CITY MOCLDY    87  42  20 S9        29.87S
$$

NMZ009-TXZ055-300400-
NEW MEXICO-WEST TEXAS

CITY           SKY/WX    TMP DP  RH WIND       PRES   REMARKS
ALBUQUERQUE    PTCLDY    77  46  33 E12       30.21R
EL PASO        PTCLDY    85  54  34 E12       30.08R
$$


........................KEY........................
SKY/WX - SKY CONDITION/WEATHER
TMP    - TEMPERATURE IN FAHRENHEIT
DP     - DEW POINT IN FAHRENHEIT
RH     - RELATIVE HUMIDITY IN PERCENT
WIND   - DIRECTION AND SPEED IN MILES PER HOUR (MPH)
VRB    - VARIABLE WIND DIRECTION
PRES   - MEAN SEA LEVEL PRESSURE IN INCHES OF MERCURY
         F - FALLING PRESSURE   R - RISING PRESSURE
         S - STEADY PRESSURE
VSB    - VISIBILITY IN MILES
HX     - HEAT INDEX IN FAHRENHEIT
WCI    - WIND CHILL INDEX IN FAHRENHEIT
TC     - TEMPERATURE IN CELSIUS WHICH IS ALSO KNOWN AS
         TEMPERATURE IN CENTIGRADE
AFB    - AIR FORCE BASE
         LUKE AFB IS LUKE AIR FORCE BASE
         DAVIS-MONTHAN IS DAVIS-MONTHAN AIR FORCE BASE
NAS    - NAVAL AIR STATION
         EL CENTRO NAS IS EL CENTRO NAVAL AIR STATION
N/A    - NOT AVAILABLE




USA.gov is the U.S. government's official web portal to all federal, state and local government web resources and services.